ROMMA est une association bénévole à but non lucratif. Votre soutien est indispensable : ADHERER à ROMMA ou FAIRE un DON

Val-d'Isère - (73, Savoie)

Haute-Maurienne (1850 m)   Longitude: 6° 58' 52'' E   Latitude: 45° 26' 53'' N Station partenaire n°93
 

Détail journalier du     <<     >>

Température Precipitation Humidité Vent Dir Rafale Dir. rafale Ensol.
Heure (°C) (mm) (%) (km/h) (km/h) (min)
01:00 5.305314N35NNE0
02:00 6.305019NNE44N0
03:00 5.405922NNE37NNE0
04:00 5.905717ENE37N0
05:00 5.905721N44NNE0
06:00 5.705923NNE45NNE0
07:00 5.705820NE39NE0
08:00 5.705517E35NNE0
09:00 5.305618ENE40ENE0
10:00 6.005419ENE35NE0
11:00 6.405513E32E0
12:00 6.705710E40E0
13:00 6.305910ESE31SSE0
14:00 6.00628ESE26NNO0
15:00 5.70598S32NO0
16:00 5.406011NO42NO0
17:00 6.105911O34NNO0
18:00 6.50619NE37NO0
19:00 6.406210NE32ONO0
20:00 5.90649E27NNE0
21:00 6.40.26111ENE32NE0
22:00 6.905711NE32ENE0
23:00 7.305818NNE45NO0
minuit 7.205816E37E0

Graphique du 25-04-2019

 

Serveur OMMA